Flag for Mexico Weather past 2 weeks in Ensenada, Baja California, Mexico

Now
53 °F

Cool.


Feels Like: 52 °F
Forecast: 62 / 79 °F
Wind: 5 mph from Northeast

Location: Campo

Current Time: Sep 1, 2015 at 7:59:24 AM

Latest Report: Sep 1, 2015 at 6:52 AM


Visibility: N/A

Pressure: 29.87 "Hg

Humidity: 56%

Dew point: 38 °F

Location of EnsenadaLocation

Historic Weather in Ensenada — Graph

°F

Ensenada temperature yesterday

Maximum temperature yesterday: 89 °F (at 12:52 PM)
Minimum temperature yesterday: 54 °F (at 11:52 PM)
Average temperature yesterday: 71 °F

Past Weeks' High & Low Weather Summary

 TemperatureHumidityPressure
High99 °F (Aug 28, 1:52 PM)83% (Aug 21, 3:52 AM)30.03 "Hg (Aug 21, 3:52 AM)
Low50 °F (Sep 1, 4:52 AM)11% (Aug 22, 9:52 AM)29.76 "Hg (Aug 20, 4:52 PM)
Average75 °F47%29.85 "Hg
* Reported Aug 17 5:52 AM — Sep 1 5:52 AM, Ensenada, Weather by CustomWeather, © 2015

Note: Actual official high and low records may vary slightly from our data, if they occured in-between our weather recording intervals... More about our weather records

Advertising

Ensenada weather history for previous 24 hours

 ConditionsComfort  
Time TempWeatherWind HumidityBarometerVisibility
5:52 AM
Tue, Sep 1
50 °FCool.6 mph63%29.85 "HgN/A
4:52 AM50 °FCool.6 mph63%29.84 "HgN/A
3:52 AM52 °FCool.5 mph59%29.83 "HgN/A
2:52 AM53 °FCool.5 mph56%29.84 "HgN/A
1:52 AM52 °FCool.5 mph61%29.85 "HgN/A
12:52 AM54 °FCool.6 mph59%29.86 "HgN/A
11:52 PM
Mon, Aug 31
54 °FCool.8 mph62%29.86 "HgN/A
10:52 PM56 °FCool.7 mph65%29.85 "HgN/A
9:52 PM62 °FRefreshingly cool.3 mph54%29.85 "HgN/A
7:52 PM68 °FMild.6 mph55%29.83 "HgN/A
6:52 PM75 °FMild.10 mph36%29.82 "HgN/A
5:52 PM81 °FPleasantly warm.16 mph27%29.80 "HgN/A
4:52 PM84 °FPleasantly warm.16 mph26%29.79 "HgN/A
3:52 PM87 °FPleasantly warm.17 mph24%29.79 "HgN/A
2:52 PM88 °FHot.17 mph23%29.80 "HgN/A
1:52 PM89 °FHot.10 mph21%29.82 "HgN/A
12:52 PM89 °FHot.13 mph19%29.82 "HgN/A
11:52 AM87 °FPleasantly warm.13 mph21%29.84 "HgN/A
10:52 AM85 °FPleasantly warm.9 mph14%29.85 "HgN/A
9:52 AM83 °FPleasantly warm.5 mph18%29.85 "HgN/A
8:52 AM75 °FMild.No wind42%29.85 "HgN/A
7:52 AM64 °FMild.No wind58%29.85 "HgN/A
Weather by CustomWeather, © 2015

See weather overviewHow to use our weather pages